• In Österreich
  • Länderverzeichnis
  • Für 7 Tage
  • Wassertemperatur
  • Satellitenkarten
  • Wetterkarte
  • News
  • Widgets
  • user-avatar
    Anmelden

    Stündliche Wetter Miechów

    Heute, 20 September, Donnerstag

    Zeit Temperatur Niederschläge Wind Luftdruck Luftfeuchtigkeit
    00:00 +17°C° 0 mm 2 m/S 738 mmHg 65%
    01:00 +16°C° 0 mm 2 m/S 738 mmHg 67%
    02:00 +16°C° 0 mm 2 m/S 738 mmHg 68%
    03:00 +16°C° 0 mm 2 m/S 738 mmHg 69%
    04:00 +16°C° 0 mm 2 m/S 738 mmHg 71%
    05:00 +16°C° 0 mm 2 m/S 738 mmHg 69%
    06:00 +17°C° 0 mm 2 m/S 738 mmHg 67%
    07:00 +18°C° 0 mm 2 m/S 738 mmHg 65%
    08:00 +20°C° 0 mm 2 m/S 738 mmHg 59%
    09:00 +23°C° 0 mm 2 m/S 738 mmHg 52%
    10:00 +26°C° 0 mm 2 m/S 739 mmHg 45%
    11:00 +26°C° 0 mm 1 m/S 738 mmHg 42%
    12:00 +27°C° 0 mm 1 m/S 738 mmHg 39%
    13:00 +28°C° 0 mm 1 m/S 738 mmHg 35%
    14:00 +28°C° 0 mm 1 m/S 738 mmHg 36%
    15:00 +28°C° 0 mm 1 m/S 737 mmHg 36%
    16:00 +28°C° 0 mm 1 m/S 737 mmHg 37%
    17:00 +26°C° 0 mm 1 m/S 737 mmHg 41%
    18:00 +23°C° 0 mm 1 m/S 737 mmHg 45%
    19:00 +21°C° 0 mm 1 m/S 737 mmHg 50%
    20:00 +21°C° 0 mm 1 m/S 737 mmHg 52%
    21:00 +20°C° 0 mm 1 m/S 737 mmHg 55%
    22:00 +18°C° 0 mm 2 m/S 737 mmHg 57%
    23:00 +19°C° 0 mm 1 m/S 737 mmHg 59%

    Morgen, 21 September, Freitag

    Zeit Temperatur Niederschläge Wind Luftdruck Luftfeuchtigkeit
    00:00 +18°C° 0 mm 1 m/S 736 mmHg 61%
    01:00 +18°C° 0 mm 1 m/S 736 mmHg 63%
    02:00 +16°C° 0 mm 1 m/S 736 mmHg 65%
    03:00 +16°C° 0 mm 1 m/S 736 mmHg 66%
    04:00 +16°C° 0 mm 1 m/S 736 mmHg 68%
    05:00 +16°C° 0 mm 2 m/S 735 mmHg 67%
    06:00 +17°C° 0 mm 2 m/S 735 mmHg 66%
    07:00 +18°C° 0 mm 2 m/S 735 mmHg 64%
    08:00 +20°C° 0 mm 2 m/S 735 mmHg 57%
    09:00 +24°C° 0 mm 3 m/S 735 mmHg 50%
    10:00 +26°C° 0 mm 3 m/S 735 mmHg 43%
    11:00 +27°C° 0 mm 3 m/S 734 mmHg 40%
    12:00 +28°C° 0 mm 4 m/S 734 mmHg 37%
    13:00 +29°C° 0 mm 4 m/S 734 mmHg 34%
    14:00 +28°C° 0 mm 4 m/S 733 mmHg 36%
    15:00 +28°C° 0 mm 4 m/S 733 mmHg 38%
    16:00 +28°C° 0 mm 4 m/S 732 mmHg 39%
    17:00 +26°C° 0 mm 4 m/S 732 mmHg 44%
    18:00 +23°C° 0 mm 4 m/S 732 mmHg 50%
    19:00 +21°C° 0 mm 3 m/S 732 mmHg 55%
    20:00 +21°C° 0 mm 4 m/S 732 mmHg 55%
    21:00 +20°C° 0 mm 4 m/S 732 mmHg 56%
    22:00 +20°C° 0 mm 4 m/S 732 mmHg 57%
    23:00 +19°C° 0 mm 4 m/S 732 mmHg 59%

    übermorgen, 22 September, Samstag

    Zeit Temperatur Niederschläge Wind Luftdruck Luftfeuchtigkeit
    00:00 +19°C° 0 mm 5 m/S 732 mmHg 62%
    01:00 +19°C° 0 mm 5 m/S 733 mmHg 65%
    02:00 +16°C° 0.5 mm 5 m/S 734 mmHg 70%
    03:00 +15°C° 0.5 mm 5 m/S 734 mmHg 74%
    04:00 +13°C° 0.5 mm 5 m/S 735 mmHg 79%
    05:00 +13°C° 0.2 mm 4 m/S 736 mmHg 79%
    06:00 +13°C° 0.2 mm 4 m/S 736 mmHg 79%
    07:00 +12°C° 0.2 mm 3 m/S 737 mmHg 79%
    08:00 +12°C° 0.3 mm 3 m/S 737 mmHg 76%
    09:00 +12°C° 0.3 mm 4 m/S 737 mmHg 73%
    10:00 +12°C° 0.3 mm 4 m/S 737 mmHg 70%
    11:00 +13°C° 0.1 mm 4 m/S 737 mmHg 65%
    12:00 +14°C° 0.1 mm 4 m/S 737 mmHg 60%
    13:00 +15°C° 0.1 mm 4 m/S 737 mmHg 55%
    14:00 +15°C° 0 mm 4 m/S 737 mmHg 52%
    15:00 +15°C° 0 mm 4 m/S 737 mmHg 48%
    16:00 +16°C° 0 mm 5 m/S 737 mmHg 45%
    17:00 +15°C° 0 mm 4 m/S 737 mmHg 47%
    18:00 +14°C° 0 mm 3 m/S 737 mmHg 50%
    19:00 +13°C° 0 mm 3 m/S 738 mmHg 52%
    20:00 +13°C° 0 mm 2 m/S 738 mmHg 54%
    21:00 +12°C° 0 mm 2 m/S 738 mmHg 57%
    22:00 +12°C° 0 mm 2 m/S 738 mmHg 60%
    23:00 +10°C° 0 mm 2 m/S 738 mmHg 61%

    23 September, Sonntag

    Zeit Temperatur Niederschläge Wind Luftdruck Luftfeuchtigkeit
    00:00 +10°C° 0 mm 3 m/S 738 mmHg 63%
    01:00 +10°C° 0 mm 3 m/S 738 mmHg 65%
    02:00 +9°C° 0 mm 3 m/S 738 mmHg 66%
    03:00 +9°C° 0 mm 3 m/S 738 mmHg 67%
    04:00 +9°C° 0 mm 3 m/S 737 mmHg 68%
    05:00 +10°C° 0 mm 3 m/S 737 mmHg 67%
    06:00 +10°C° 0 mm 3 m/S 737 mmHg 65%
    07:00 +11°C° 0 mm 4 m/S 737 mmHg 64%
    08:00 +12°C° 0 mm 4 m/S 737 mmHg 59%
    09:00 +14°C° 0 mm 5 m/S 737 mmHg 53%
    10:00 +15°C° 0 mm 5 m/S 736 mmHg 48%
    11:00 +16°C° 0 mm 5 m/S 736 mmHg 47%
    12:00 +16°C° 0 mm 5 m/S 735 mmHg 46%
    13:00 +17°C° 0 mm 5 m/S 735 mmHg 45%
    14:00 +16°C° 0 mm 5 m/S 734 mmHg 50%
    15:00 +16°C° 0 mm 5 m/S 733 mmHg 54%
    16:00 +17°C° 0 mm 4 m/S 732 mmHg 59%
    17:00 +15°C° 0.4 mm 5 m/S 731 mmHg 65%
    18:00 +15°C° 0.4 mm 6 m/S 730 mmHg 71%
    19:00 +14°C° 0.4 mm 7 m/S 729 mmHg 77%
    20:00 +14°C° 0.4 mm 7 m/S 728 mmHg 75%
    21:00 +15°C° 0.4 mm 6 m/S 727 mmHg 74%
    22:00 +15°C° 0.4 mm 6 m/S 726 mmHg 72%
    23:00 +16°C° 0.2 mm 7 m/S 726 mmHg 71%

    24 September, Montag

    Zeit Temperatur Niederschläge Wind Luftdruck Luftfeuchtigkeit
    00:00 +16°C° 0.2 mm 7 m/S 725 mmHg 70%
    01:00 +17°C° 0.2 mm 8 m/S 724 mmHg 69%
    02:00 +17°C° 1.1 mm 9 m/S 723 mmHg 72%
    03:00 +17°C° 1.1 mm 10 m/S 723 mmHg 76%
    04:00 +17°C° 1.1 mm 11 m/S 722 mmHg 79%
    05:00 +14°C° 0.4 mm 11 m/S 724 mmHg 78%
    06:00 +12°C° 0.4 mm 12 m/S 726 mmHg 76%
    07:00 +9°C° 0.4 mm 13 m/S 727 mmHg 74%
    08:00 +8°C° 0.1 mm 12 m/S 729 mmHg 72%
    09:00 +8°C° 0.1 mm 12 m/S 730 mmHg 69%
    10:00 +8°C° 0.1 mm 12 m/S 731 mmHg 66%
    11:00 +8°C° 0 mm 11 m/S 732 mmHg 63%
    12:00 +9°C° 0 mm 11 m/S 733 mmHg 60%
    13:00 +9°C° 0 mm 11 m/S 734 mmHg 56%
    14:00 +9°C° 0 mm 10 m/S 735 mmHg 55%
    15:00 +11°C° 0 mm 10 m/S 736 mmHg 54%
    16:00 +11°C° 0 mm 9 m/S 736 mmHg 53%
    17:00 +10°C° 0 mm 7 m/S 737 mmHg 58%
    18:00 +9°C° 0 mm 6 m/S 738 mmHg 63%
    19:00 +8°C° 0 mm 4 m/S 738 mmHg 68%
    20:00 +8°C° 0 mm 4 m/S 739 mmHg 71%
    21:00 +7°C° 0 mm 4 m/S 739 mmHg 74%
    22:00 +7°C° 0 mm 4 m/S 740 mmHg 77%
    23:00 +7°C° 0 mm 4 m/S 740 mmHg 78%

    25 September, Dienstag

    Zeit Temperatur Niederschläge Wind Luftdruck Luftfeuchtigkeit
    00:00 +6°C° 0 mm 4 m/S 740 mmHg 80%
    01:00 +6°C° 0 mm 4 m/S 741 mmHg 82%
    02:00 +5°C° 0 mm 4 m/S 741 mmHg 82%
    03:00 +5°C° 0 mm 4 m/S 741 mmHg 83%
    04:00 +5°C° 0 mm 4 m/S 742 mmHg 84%
    05:00 +5°C° 0 mm 5 m/S 742 mmHg 82%
    06:00 +5°C° 0 mm 5 m/S 742 mmHg 80%
    07:00 +5°C° 0 mm 6 m/S 742 mmHg 77%
    08:00 +7°C° 0 mm 6 m/S 742 mmHg 72%
    09:00 +8°C° 0 mm 6 m/S 743 mmHg 66%
    10:00 +9°C° 0 mm 6 m/S 743 mmHg 60%
    11:00 +10°C° 0.1 mm 6 m/S 742 mmHg 57%
    12:00 +10°C° 0.1 mm 6 m/S 742 mmHg 54%
    13:00 +11°C° 0.1 mm 6 m/S 742 mmHg 50%
    14:00 +11°C° 0 mm 6 m/S 741 mmHg 50%
    15:00 +11°C° 0 mm 6 m/S 741 mmHg 49%
    16:00 +11°C° 0 mm 6 m/S 741 mmHg 48%
    17:00 +10°C° 0.5 mm 5 m/S 741 mmHg 59%
    18:00 +9°C° 0.5 mm 5 m/S 741 mmHg 70%
    19:00 +7°C° 0.5 mm 5 m/S 741 mmHg 81%
    20:00 +7°C° 0.2 mm 4 m/S 742 mmHg 83%
    21:00 +7°C° 0.2 mm 4 m/S 742 mmHg 85%
    22:00 +7°C° 0.2 mm 3 m/S 742 mmHg 88%
    23:00 +7°C° 0 mm 3 m/S 743 mmHg 89%
    Mehr zeigen